Torna al catalogo

TITAN 3C TRANSTAGE DEB *

LostGTO
NORAD 34166·DEBRIS·🇺🇸 United States

Lanciato Dec 21, 1965 da Cape Canaveral Space Force Station

Loading…

TLE

ObsoletoSource: Space-Track

Epoca: Dec 6, 2025, 01:23 UTC

1 34166U 65108CZ  25340.05826804  .00000484  00000-0  62718-3 0  9990
2 34166  25.1183 234.0689 7215617 221.9658  51.5176  2.31538461  6853

Traccia TITAN 3C TRANSTAGE DEB * in tempo reale con AllMySat

Download on the App Store